When you browse on this site, cookies collect data to enhance your experience and personalize the content and advertising you see.
Visit our Privacy Policy to learn more. By continuing to use the site, you agree to this use of cookies and data.
  • In Romania
  • List of Countries
  • For 7 days
  • Water Temperature
  • Satellite Maps
  • Weather Map
  • Weather Widgets
  • user-avatar
    Login

    Hourly Weather Mérida

    Today, 20 January, Sunday

    Time Temperature Precipitation Wind Pressure Humidity
    00:00 +13°C° 0 mm 2 mps 592 mmHg 62%
    01:00 +13°C° 0 mm 2 mps 592 mmHg 61%
    02:00 +13°C° 0 mm 2 mps 592 mmHg 64%
    03:00 +12°C° 0 mm 3 mps 592 mmHg 66%
    04:00 +12°C° 0 mm 3 mps 592 mmHg 69%
    05:00 +12°C° 0 mm 3 mps 592 mmHg 67%
    06:00 +13°C° 0 mm 3 mps 593 mmHg 65%
    07:00 +14°C° 0 mm 3 mps 594 mmHg 63%
    08:00 +17°C° 0 mm 2 mps 595 mmHg 57%
    09:00 +20°C° 0 mm 2 mps 596 mmHg 50%
    10:00 +23°C° 0 mm 2 mps 598 mmHg 44%
    11:00 +24°C° 0 mm 2 mps 597 mmHg 45%
    12:00 +24°C° 0 mm 2 mps 597 mmHg 46%
    13:00 +25°C° 0 mm 2 mps 596 mmHg 47%
    14:00 +24°C° 0.2 mm 2 mps 595 mmHg 52%
    15:00 +23°C° 0.2 mm 2 mps 595 mmHg 57%
    16:00 +21°C° 0.2 mm 2 mps 594 mmHg 62%
    17:00 +20°C° 0.1 mm 1 mps 593 mmHg 69%
    18:00 +18°C° 0.1 mm 1 mps 593 mmHg 77%
    19:00 +15°C° 0.1 mm 1 mps 592 mmHg 84%
    20:00 +15°C° 0 mm 1 mps 592 mmHg 83%
    21:00 +15°C° 0 mm 1 mps 592 mmHg 82%
    22:00 +14°C° 0 mm 1 mps 593 mmHg 81%
    23:00 +14°C° 0 mm 1 mps 592 mmHg 77%

    Tomorrow, 21 January, Monday

    Time Temperature Precipitation Wind Pressure Humidity
    00:00 +14°C° 0 mm 2 mps 592 mmHg 73%
    01:00 +13°C° 0 mm 2 mps 592 mmHg 68%
    02:00 +13°C° 0 mm 2 mps 592 mmHg 62%
    03:00 +13°C° 0 mm 2 mps 592 mmHg 56%
    04:00 +13°C° 0 mm 2 mps 592 mmHg 50%
    05:00 +13°C° 0 mm 2 mps 592 mmHg 52%
    06:00 +14°C° 0 mm 2 mps 593 mmHg 54%
    07:00 +15°C° 0 mm 2 mps 594 mmHg 56%
    08:00 +17°C° 0 mm 2 mps 595 mmHg 54%
    09:00 +19°C° 0 mm 2 mps 597 mmHg 52%
    10:00 +23°C° 0 mm 1 mps 598 mmHg 51%
    11:00 +21°C° 0.1 mm 2 mps 597 mmHg 54%
    12:00 +21°C° 0.1 mm 2 mps 597 mmHg 57%
    13:00 +21°C° 0.1 mm 2 mps 596 mmHg 60%
    14:00 +21°C° 0.2 mm 2 mps 595 mmHg 61%
    15:00 +22°C° 0.2 mm 1 mps 594 mmHg 62%
    16:00 +21°C° 0.2 mm 1 mps 594 mmHg 63%
    17:00 +19°C° 0.1 mm 1 mps 593 mmHg 70%
    18:00 +18°C° 0.1 mm 1 mps 593 mmHg 77%
    19:00 +15°C° 0.1 mm 1 mps 593 mmHg 84%
    20:00 +15°C° 0 mm 1 mps 593 mmHg 82%
    21:00 +14°C° 0 mm 1 mps 593 mmHg 81%
    22:00 +14°C° 0 mm 1 mps 593 mmHg 79%
    23:00 +13°C° 0 mm 2 mps 593 mmHg 72%

    Day after tomorrow, 22 January, Tuesday

    Time Temperature Precipitation Wind Pressure Humidity
    00:00 +13°C° 0 mm 2 mps 593 mmHg 66%
    01:00 +13°C° 0 mm 2 mps 592 mmHg 60%
    02:00 +13°C° 0 mm 2 mps 592 mmHg 57%
    03:00 +12°C° 0 mm 2 mps 592 mmHg 53%
    04:00 +12°C° 0 mm 2 mps 591 mmHg 50%
    05:00 +13°C° 0 mm 2 mps 592 mmHg 51%
    06:00 +14°C° 0 mm 2 mps 593 mmHg 51%
    07:00 +14°C° 0 mm 2 mps 594 mmHg 52%
    08:00 +17°C° 0 mm 2 mps 595 mmHg 49%
    09:00 +19°C° 0 mm 2 mps 597 mmHg 46%
    10:00 +23°C° 0 mm 2 mps 598 mmHg 43%
    11:00 +23°C° 0 mm 2 mps 598 mmHg 44%
    12:00 +23°C° 0 mm 2 mps 597 mmHg 46%
    13:00 +23°C° 0 mm 2 mps 596 mmHg 47%
    14:00 +23°C° 0.1 mm 2 mps 595 mmHg 50%
    15:00 +21°C° 0.1 mm 2 mps 594 mmHg 53%
    16:00 +21°C° 0.1 mm 1 mps 594 mmHg 56%
    17:00 +19°C° 0 mm 1 mps 593 mmHg 62%
    18:00 +18°C° 0 mm 1 mps 593 mmHg 68%
    19:00 +15°C° 0 mm 1 mps 592 mmHg 74%
    20:00 +14°C° 0 mm 1 mps 593 mmHg 69%
    21:00 +14°C° 0 mm 1 mps 593 mmHg 65%
    22:00 +14°C° 0 mm 2 mps 593 mmHg 60%
    23:00 +13°C° 0 mm 2 mps 593 mmHg 57%

    23 January, Wednesday

    Time Temperature Precipitation Wind Pressure Humidity
    00:00 +13°C° 0 mm 2 mps 593 mmHg 54%
    01:00 +13°C° 0 mm 2 mps 592 mmHg 51%
    02:00 +13°C° 0 mm 2 mps 592 mmHg 54%
    03:00 +12°C° 0 mm 2 mps 592 mmHg 57%
    04:00 +12°C° 0 mm 2 mps 592 mmHg 60%
    05:00 +13°C° 0 mm 2 mps 593 mmHg 59%
    06:00 +12°C° 0 mm 3 mps 593 mmHg 58%
    07:00 +13°C° 0 mm 3 mps 594 mmHg 57%
    08:00 +17°C° 0 mm 2 mps 596 mmHg 51%
    09:00 +19°C° 0 mm 2 mps 597 mmHg 45%
    10:00 +23°C° 0 mm 2 mps 598 mmHg 38%
    11:00 +23°C° 0 mm 2 mps 598 mmHg 39%
    12:00 +24°C° 0 mm 2 mps 597 mmHg 40%
    13:00 +24°C° 0 mm 2 mps 597 mmHg 41%
    14:00 +23°C° 0 mm 2 mps 596 mmHg 45%
    15:00 +21°C° 0 mm 2 mps 595 mmHg 49%
    16:00 +21°C° 0 mm 1 mps 594 mmHg 53%
    17:00 +20°C° 0 mm 1 mps 593 mmHg 60%
    18:00 +18°C° 0 mm 1 mps 593 mmHg 67%
    19:00 +15°C° 0 mm 1 mps 592 mmHg 74%
    20:00 +15°C° 0 mm 1 mps 592 mmHg 70%
    21:00 +14°C° 0 mm 1 mps 593 mmHg 67%
    22:00 +14°C° 0 mm 1 mps 593 mmHg 63%
    23:00 +14°C° 0 mm 2 mps 592 mmHg 57%

    24 January, Thursday

    Time Temperature Precipitation Wind Pressure Humidity
    00:00 +13°C° 0 mm 2 mps 592 mmHg 50%
    01:00 +13°C° 0 mm 2 mps 592 mmHg 44%
    02:00 +13°C° 0 mm 2 mps 591 mmHg 46%
    03:00 +13°C° 0 mm 2 mps 591 mmHg 49%
    04:00 +13°C° 0 mm 2 mps 591 mmHg 51%
    05:00 +13°C° 0 mm 2 mps 592 mmHg 55%
    06:00 +14°C° 0 mm 2 mps 593 mmHg 59%
    07:00 +15°C° 0 mm 2 mps 594 mmHg 62%
    08:00 +17°C° 0 mm 2 mps 595 mmHg 58%
    09:00 +19°C° 0 mm 2 mps 596 mmHg 54%
    10:00 +23°C° 0 mm 2 mps 598 mmHg 50%
    11:00 +23°C° 0 mm 2 mps 597 mmHg 53%
    12:00 +23°C° 0 mm 2 mps 596 mmHg 55%
    13:00 +23°C° 0 mm 2 mps 595 mmHg 57%
    14:00 +21°C° 0.1 mm 2 mps 594 mmHg 63%
    15:00 +21°C° 0.1 mm 1 mps 593 mmHg 70%
    16:00 +20°C° 0.1 mm 1 mps 592 mmHg 76%
    17:00 +19°C° 0 mm 1 mps 592 mmHg 80%
    18:00 +18°C° 0 mm 1 mps 592 mmHg 85%
    19:00 +16°C° 0 mm 1 mps 592 mmHg 90%
    20:00 +16°C° 0 mm 1 mps 592 mmHg 90%
    21:00 +15°C° 0 mm 1 mps 593 mmHg 89%
    22:00 +15°C° 0 mm 1 mps 593 mmHg 89%
    23:00 +15°C° 0 mm 1 mps 593 mmHg 89%

    25 January, Friday

    Time Temperature Precipitation Wind Pressure Humidity
    00:00 +15°C° 0 mm 1 mps 593 mmHg 89%
    01:00 +15°C° 0 mm 1 mps 592 mmHg 89%
    02:00 +14°C° 0 mm 1 mps 592 mmHg 89%
    03:00 +14°C° 0 mm 1 mps 592 mmHg 89%
    04:00 +14°C° 0 mm 2 mps 592 mmHg 88%
    05:00 +15°C° 0 mm 1 mps 593 mmHg 87%
    06:00 +15°C° 0 mm 1 mps 593 mmHg 85%
    07:00 +16°C° 0 mm 1 mps 594 mmHg 84%
    08:00 +18°C° 0 mm 1 mps 595 mmHg 78%
    09:00 +20°C° 0 mm 1 mps 596 mmHg 72%
    10:00 +22°C° 0 mm 1 mps 597 mmHg 66%
    11:00 +21°C° 0.1 mm 1 mps 596 mmHg 70%
    12:00 +21°C° 0.1 mm 1 mps 595 mmHg 74%
    13:00 +20°C° 0.1 mm 1 mps 594 mmHg 78%
    14:00 +20°C° 0.2 mm 1 mps 593 mmHg 79%
    15:00 +20°C° 0.2 mm 1 mps 593 mmHg 81%
    16:00 +20°C° 0.2 mm 1 mps 592 mmHg 83%
    17:00 +19°C° 0.1 mm 1 mps 592 mmHg 86%
    18:00 +18°C° 0.1 mm 1 mps 592 mmHg 90%
    19:00 +15°C° 0.1 mm 0 mps 592 mmHg 93%
    20:00 +16°C° 0 mm 1 mps 592 mmHg 93%
    21:00 +16°C° 0 mm 1 mps 593 mmHg 92%
    22:00 +15°C° 0 mm 1 mps 593 mmHg 92%
    23:00 +15°C° 0 mm 1 mps 593 mmHg 92%
    Show more